Location: San Francisco
(37.7750°N, 122.4180°W)
Time: 03:44:39
(UTC-07:00)

Daily predictions for brighter satellites

Satellite Brightness Start Highest point End
(mag) Time Altitude Azimuth Time Altitude Azimuth Time Altitude Azimuth
Iridium 4 Rocket 4.1 00:04:04 10° N 00:09:10 62° NE 00:09:10 62° NE
USA 229 DEB 3.6 00:03:07 10° NNW 00:10:16 90° NE 00:10:39 82° SE
USA 229 3.6 00:03:13 10° NNW 00:10:22 89° NE 00:10:45 82° SE
Cosmos 2123 Rocket 4.5 00:11:38 10° N 00:17:17 49° ENE 00:17:17 49° ENE
ALOS 2 4.3 00:22:18 30° NNE 00:22:18 30° NNE 00:24:46 10° N
Cosmos 1934 Rocket 4.1 00:21:23 63° NE 00:21:23 63° NE 00:26:36 10° N
Cosmos 2369 Rocket 3.6 00:25:03 28° ENE 00:25:03 28° ENE 00:28:01 10° NE
H-2A R/B 4.5 00:21:01 10° NNE 00:23:09 26° NE 00:23:09 26° NE
Terra 4.3 00:34:38 13° W 00:34:38 13° W 00:36:14 10° WNW
Lacrosse 5 3.7 00:45:31 23° NE 00:45:31 23° NE 00:47:26 10° NE
CZ-2C R/B 4.0 00:45:19 10° NNE 00:48:23 31° NE 00:48:23 31° NE
CZ-2C R/B 4.5 01:00:52 30° NE 01:00:52 30° NE 01:04:23 10° N
NOSS 3-1 (C) 4.0 00:53:35 10° NNW 01:01:17 77° ENE 01:02:09 70° ESE
Cosmos 1833 Rocket 4.5 00:59:32 10° NW 01:02:23 21° WNW 01:02:23 21° WNW
Cosmos 1943 Rocket 3.5 01:15:38 31° ENE 01:15:38 31° ENE 01:18:54 10° NE
Cosmos 2082 Rocket 4.5 01:13:44 10° WNW 01:15:09 13° W 01:15:09 13° W
Cosmos 2100 Rocket 4.3 01:21:57 61° ENE 01:21:57 61° ENE 01:27:32 10° NNE
Cosmos 2061 Rocket 4.3 01:25:21 60° ENE 01:25:21 60° ENE 01:31:03 10° NNE
Cosmos 1802 Rocket 4.1 01:43:30 68° NE 01:43:30 68° NE 01:49:01 10° N
Cosmos 2016 Rocket 4.2 01:46:08 62° NE 01:46:08 62° NE 01:51:30 10° NNE
Cosmos 1459 Rocket 4.1 01:49:33 69° NNW 01:49:33 69° NNW 01:54:56 10° N
Cosmos 1818 4.3 01:52:44 52° NNE 01:52:44 52° NNE 01:56:50 10° NNE
SeaSat 1 3.4 01:53:08 45° NNE 01:53:08 45° NNE 01:57:03 10° NNW
BREEZE-M DEB (TANK) 4.4 01:48:25 10° NW 01:52:39 56° NE 02:09:18 10° ESE
Cosmos 968 Rocket 4.2 01:59:40 10° N 02:03:49 50° NNE 02:03:49 50° NNE
Cosmos 2173 Rocket 4.3 02:05:26 59° WNW 02:05:26 59° WNW 02:11:11 10° N
Cosmos 2369 Rocket 3.6 02:06:49 28° WNW 02:06:54 28° WNW 02:11:42 10° N
Lacrosse 5 rocket 4.0 02:13:45 14° NNW 02:13:45 14° NNW 02:15:13 10° N
Cosmos 2219 3.9 02:07:48 10° N 02:13:14 46° ENE 02:13:38 45° ENE
CZ-3B DEB 4.5 01:44:11 10° NW 02:17:28 77° SW 02:23:43 39° SSE
NOSS 3-3 (A) 4.3 02:18:32 57° E 02:18:32 57° E 02:24:29 10° NE
NOSS 3-3 (C) 4.3 02:18:38 56° E 02:18:38 56° E 02:24:34 10° NE
Cosmos 1725 Rocket 3.9 02:19:06 80° NE 02:19:06 80° NE 02:25:02 10° N
NOSS 3-1 (A) 4.5 02:12:23 10° NW 02:18:48 45° W 02:18:48 45° W
Tsikada Rocket 3.9 02:19:16 10° N 02:25:34 79° E 02:25:40 79° E
Lacrosse 5 3.7 02:24:40 22° NW 02:25:44 23° NNW 02:29:49 10° NNE
CZ-2C R/B 4.3 02:26:20 10° NNW 02:29:54 22° WNW 02:29:54 22° WNW
Cosmos 1777 Rocket 4.3 02:29:18 10° NNW 02:33:56 62° NNE 02:33:56 62° NNE
ATLAS CENTAUR R/B 4.4 02:40:19 10° ESE 02:40:23 10° ESE 02:41:12 10° E
ATLAS 2AS CENTAUR R/B 2.8 02:33:30 10° NNW 02:41:36 83° WSW 02:43:16 60° SSE
BREEZE-M DEB (TANK) 4.0 02:43:05 48° NNE 02:43:05 48° NNE 02:45:42 10° NE
IRS-P3 4.3 02:37:05 10° NNE 02:42:06 68° ENE 02:42:06 68° ENE
Cosmos 2228 4.0 02:49:49 46° NNE 02:49:49 46° NNE 02:52:55 10° N
IRAS Rocket 4.4 02:48:13 10° NNE 02:53:46 60° ESE 02:54:08 59° ESE
Cosmos 1656 Rocket 4.0 02:56:16 54° WNW 02:56:16 54° WNW 03:01:47 10° NNE
Cosmos 1943 Rocket 3.6 02:57:09 25° WNW 02:57:34 26° WNW 03:02:10 10° N
Cosmos 2058 Rocket 4.2 03:02:17 38° NNW 03:02:17 38° NNW 03:05:21 10° N
NPP 3.5 02:57:44 10° NNE 03:03:09 89° WNW 03:03:14 87° SSW
Cosmos 44 Rocket 4.0 03:01:01 10° NW 03:04:41 47° NW 03:04:41 47° NW
Milstar 3 Cent rocket 4.0 03:08:38 20° SE 03:08:38 20° SE 03:11:48 10° ESE
Cosmos 1812 Rocket 4.2 03:07:09 50° E 03:07:09 50° E 03:11:18 10° NNE
SL-8 R/B 4.2 03:03:31 10° NW 03:08:15 58° NNE 03:12:58 10° ESE
AQUA 3.8 03:03:56 10° NNE 03:08:24 78° NNE 03:08:24 78° NNE
Resurs 1-4 Rocket 3.5 03:11:46 10° NE 03:16:23 30° E 03:18:17 24° SE
ERS-2 3.1 03:15:29 10° NNE 03:18:17 48° NNE 03:18:17 48° NNE
Cosmos 1570 Rocket 4.4 03:21:11 48° WNW 03:21:21 48° WNW 03:26:33 10° N
Cosmos 1464 Rocket 4.1 03:19:50 48° SSE 03:21:38 73° E 03:27:56 10° N
Cosmos 2346 Rocket 4.5 03:21:19 10° NNW 03:27:30 65° W 03:28:35 55° SW
Cosmos 2233 Rocket 4.4 03:28:32 42° W 03:29:11 43° WNW 03:35:00 10° N
SL-08 R/B 3.7 03:30:33 49° WNW 03:30:33 49° WNW 03:34:27 10° NNW
Cosmos 1898 Rocket 4.5 03:26:34 10° N 03:31:43 46° ENE 03:36:44 10° SE
ADEOS 3.4 03:27:07 10° NNE 03:32:22 86° WNW 03:33:11 65° SSW
CBERS 1 LM4 rocket 4.3 03:31:42 10° N 03:36:27 69° WNW 03:36:49 65° WSW
NOSS 2-1 (D) 3.7 03:36:42 54° ESE 03:36:42 54° ESE 03:40:42 10° NE
NOSS 2-1 (C) 3.7 03:38:00 55° ESE 03:38:00 55° ESE 03:42:03 10° NE
Meteor 2-5 Rocket 3.9 03:32:43 10° N 03:38:36 75° E 03:41:39 30° SSE
OAO 3 Rocket 4.4 03:47:14 27° SE 03:47:14 27° SE 03:49:36 10° SE
Uosat 12 SS-18 rocket 4.4 03:40:45 10° NNW 03:45:33 89° SW 03:51:18 10° SSE
Cosmos 1656 4.3 03:43:47 32° SSE 03:46:03 50° ESE 03:51:32 10° NNE
Cosmos 1937 Rocket 4.4 03:44:23 10° N 03:49:22 46° ENE 03:54:21 10° SE
Cosmos 972 Rocket 4.0 03:47:20 10° NNW 03:52:11 58° WSW 03:52:59 52° SW
Cosmos 2082 3.7 03:46:45 10° NNW 03:52:25 79° ENE 03:58:01 10° SSE
NOSS 2-1 (E) 3.2 03:52:35 69° S 03:52:55 76° ESE 03:57:16 10° NE
Cosmos 1513 Rocket 4.3 03:51:50 41° SSW 03:54:05 77° W 04:00:10 10° N
ARIANE 5 R/B 2.4 03:49:10 10° NNE 03:54:18 86° WNW 03:55:57 45° SSW
Cosmos 1697 Rocket 3.5 03:52:12 25° SSE 03:55:05 44° ESE 04:00:26 10° NE
SME Rocket 3.9 03:53:50 28° SSE 03:56:44 88° WSW 04:04:13 10° NNW
Cosmos 1763 Rocket 4.4 03:54:40 24° SSE 03:57:24 43° ESE 04:02:19 10° NNE
USA 161 3.3 03:59:39 25° NNW 03:59:39 25° NNW 04:01:04 10° NNW
Cosmos 44 3.4 03:53:33 10° NW 03:58:32 54° WSW 03:59:09 50° SW
Cosmos 1980 Rocket 3.7 03:57:48 13° SSE 04:01:50 29° ESE 04:06:38 10° NE
Spot 4 Rocket 4.4 03:58:05 10° N 04:03:03 49° WNW 04:04:26 39° WSW
CZ-2D R/B 2.1 03:58:04 10° NNE 04:03:35 85° ESE 04:06:09 33° S
CZ-2D R/B 4.5 04:01:30 10° NNE 04:05:39 44° E 04:08:08 22° SSE
Cosmos 2227 Rocket 2.1 04:00:11 10° NNW 04:05:52 76° WSW 04:10:49 14° SSE
Cosmos 1766 3.6 04:04:50 36° SSE 04:06:14 61° E 04:10:09 10° NNE
Cosmos 1891 Rocket 4.5 04:06:32 36° SW 04:08:57 60° W 04:14:58 10° N
MOS 1-B 4.4 04:04:40 10° NNE 04:10:31 79° ESE 04:14:03 25° S
SL-16 R/B 2.4 04:06:09 18° S 04:10:50 76° WSW 04:17:02 10° NNW
Okean O Rocket 2.9 04:08:16 10° NNE 04:12:20 36° E 04:15:42 14° SSE
Cosmos 405 Rocket 3.0 04:08:48 10° NNW 04:12:44 48° W 04:13:02 46° WSW
IRS-1D 3.5 04:09:35 10° N 04:14:27 59° WNW 04:16:19 36° SW
Cosmos 2298 Rocket 4.0 04:09:49 10° NNW 04:15:02 62° WSW 04:18:18 23° S
Cosmos 2278 4.3 04:15:13 30° WSW 04:17:21 41° WNW 04:22:43 10° N
Cosmos 2369 4.2 04:15:13 32° WSW 04:17:24 47° WNW 04:22:52 10° N
Cosmos 1953 3.6 04:15:41 15° SSE 04:18:41 39° E 04:22:28 10° NNE
ATLAS CENTAUR R/B 1.8 04:16:40 36° SSW 04:18:46 87° WNW 04:23:50 10° NNE
UNKNOWN OBJECT B 2.7 04:14:56 10° NNE 04:18:53 88° E 04:20:20 38° S
UNK 3.7 04:17:52 30° S 04:20:06 62° W 04:24:45 10° NNW
Cosmos 2034 Rocket 4.2 04:17:28 30° SW 04:20:19 51° W 04:26:22 10° N
Cosmos 1814 Rocket 4.3 04:23:07 31° SW 04:25:28 55° WNW 04:30:44 10° N
Cosmos 2297 Rocket 2.1 04:22:18 10° NNW 04:27:56 71° WSW 04:33:32 10° SSE
IRS-1C Rocket 4.4 04:23:23 10° NNE 04:28:37 64° ESE 04:33:06 14° S
Meteor 1-22 Rocket 4.4 04:25:39 25° SSW 04:29:19 68° W 04:35:26 10° N
NOSS 7 (D) 4.3 04:28:35 40° SSW 04:29:42 83° ESE 04:33:04 10° NE
EO 1 Del DPAF 3.4 04:28:31 33° SSW 04:29:54 52° W 04:33:42 10° NNW
ATLAS 2AS CENTAUR R/B 4.5 04:27:19 10° WNW 04:30:37 15° W 04:30:37 15° W
Cosmos 1076 Rocket 3.4 04:28:13 10° N 04:32:34 87° W 04:36:24 13° S
EP 2 4.1 04:32:56 61° WSW 04:33:13 70° NW 04:35:55 10° NNE
Cosmos 220 Rocket 4.4 04:30:05 10° NW 04:34:08 39° WSW 04:35:43 28° SSW
GEOS 3 Rocket 3.9 04:31:06 10° S 04:36:00 42° WSW 04:40:55 10° NW
Meteor 1-24 Rocket 3.8 04:30:56 10° NNW 04:36:32 60° W 04:42:02 11° S
Nadezhda 4 Rocket 4.1 04:34:37 10° NNW 04:40:38 58° W 04:46:33 11° SSW
SL-16 R/B 4.3 04:37:19 10° SSE 04:41:35 22° E 04:45:53 10° NE
CZ-2C R/B 4.0 04:37:44 10° SSE 04:42:27 75° ENE 04:47:07 10° N
Cosmos 1805 3.5 04:39:50 15° S 04:43:03 71° E 04:46:57 10° NNE
PAYLOAD B 4.5 04:38:54 10° NNE 04:44:30 70° ESE 04:50:04 10° S
Cosmos 1378 3.2 04:41:51 10° NNW 04:45:34 55° W 04:48:15 17° SSW
Cosmos 1766 Rocket 3.5 04:42:24 10° NNW 04:46:47 70° W 04:51:10 10° S
Cosmos 1408 Rocket 3.5 04:42:39 10° NNW 04:46:59 62° W 04:51:14 10° S
Okean-O 4.4 04:46:14 10° NE 04:50:09 30° E 04:54:04 10° SSE
SL-8 R/B 4.5 04:46:30 10° WNW 04:50:35 28° SW 04:54:39 10° SSE
EP 1 4.0 04:50:33 34° SW 04:51:28 87° WNW 04:54:00 10° NNE
Cosmos 1707 4.4 04:49:42 10° NW 04:52:19 17° W 04:52:42 17° W
Cosmos 1441 Rocket 3.3 04:49:02 10° NNW 04:52:57 60° W 04:56:53 10° S
Cosmos-2242 3.0 04:49:34 15° SSW 04:53:04 73° W 04:57:24 10° N
Resurs 1-4 Rocket 3.1 04:51:35 10° N 04:56:08 30° WNW 04:59:21 16° WSW
MOZ.5/SAFIR/RUBIN 5/SL-8 3.7 04:54:07 10° SSE 04:58:51 85° WSW 05:03:35 10° NNW
Cosmos 990 Rocket 4.1 04:54:38 10° NNW 04:59:44 53° WSW 05:04:49 10° S
CZ-4B R/B 3.2 04:56:24 10° NNE 05:02:00 85° WNW 05:07:26 10° SSW
Meteor 1-21 Rocket 4.4 04:57:32 10° N 05:03:28 88° ENE 05:09:24 10° S
CZ-4B R/B 2.7 05:00:21 10° NNE 05:04:23 88° W 05:08:10 10° SSW
Cosmos 1842 Rocket 3.8 05:01:19 10° S 05:05:46 74° E 05:10:15 10° N
ISS -1.3 05:06:25 10° NNW 05:09:23 31° NNE 05:12:20 10° E
Cosmos 1634 Rocket 4.2 05:04:14 10° SSW 05:10:18 55° W 05:16:28 10° N
Cosmos 2026 Rocket 4.0 05:05:53 10° N 05:12:15 82° W 05:18:31 10° S
CZ-3A R/B 4.2 05:01:19 11° WSW 05:12:39 42° NW 05:17:05 10° NNE
GPS 2-04 Rocket1 2.7 05:10:32 14° WSW 05:13:45 60° S 05:17:23 10° E
Cosmos 332 Rocket 4.1 05:11:22 10° S 05:16:07 71° ESE 05:20:55 10° NNE
Cosmos 1125 Rocket 3.5 05:14:42 10° NNW 05:19:56 87° WSW 05:25:07 10° SSE
ASTRO E2 3.7 05:17:58 12° WSW 05:21:06 29° S 05:24:37 10° SE
Cosmos 1470 2.8 05:31:54 10° SSW 05:35:46 64° W 05:39:43 10° N
Cosmos 371 Rocket 3.5 05:33:03 10° SSW 05:37:51 77° ESE 05:42:40 10° NNE
Cosmos 1697 Rocket 4.0 05:34:36 10° WSW 05:39:13 25° WNW 05:43:52 10° N
Thor Agena Rocket 3.9 05:37:04 10° S 05:41:49 41° W 05:46:34 10° NNW
